Regional Weather Roundup
Issued by NWS

Home | Current Version | Previous Version | Text Only | Print | Product List | Glossary Off
Versions: 1 2 3 4 5 6 7 8 9 10 11 12 13 14 15 16 17 18 19 20 21 22 23 24 25 26 27 28 29 30 31 32 33 34 35 36 37 38 39 40 41 42 43 44 45 46 47 48 49 50

000
ASUS43 KLMK 220502
RWRKY
KENTUCKY REGIONAL WEATHER ROUNDUP
NATIONAL WEATHER SERVICE LOUISVILLE KY
100 AM EDT TUE MAY 22 2018

NOTE "FAIR" INDICATES FEW OR NO CLOUDS BELOW 12,000 FEET
WITH NO SIGNIFICANT WEATHER AND/OR OBSTRUCTIONS TO VISIBILITY.

KYZ001>023-026-027-061>063-070>075-220600-
WESTERN AND SOUTH CENTRAL KENTUCKY

CITY           SKY/WX    TMP DP  RH WIND       PRES   REMARKS
PADUCAH        FAIR      73  70  90 S3        30.01F
HENDERSON      NOT AVBL
OWENSBORO      FAIR      71  69  93 SE5       30.03S
HOPKINSVILLE   CLEAR     71  70  98 SE5       30.04F
BOWLING GREEN  FAIR      71  70  96 CALM      30.06S
GLASGOW        NOT AVBL
$$

KYZ024-025-028>034-038-045-046-053-220600-
NORTH CENTRAL KENTUCKY

CITY           SKY/WX    TMP DP  RH WIND       PRES   REMARKS
LOUISVILLE/SDF MOCLDY    72  68  87 SE7       30.04S
LOUISVILLE/LOU FAIR      71  69  93 CALM      30.04F
FORT KNOX      FAIR      68  68 100 CALM      30.05F
$$

KYZ035>037-039>044-047>052-055>060-089>105-220600-
NORTHEAST KENTUCKY

CITY           SKY/WX    TMP DP  RH WIND       PRES   REMARKS
LEXINGTON      LGT RAIN  68  66  93 E3        30.07F
COVINGTON      CLOUDY    68  65  90 S9        30.06S
FRANKFORT      CLOUDY    68  64  87 CALM      30.05F
$$

KYZ054-064>069-076>088-106>120-220600-
SOUTHEAST KENTUCKY

CITY           SKY/WX    TMP DP  RH WIND       PRES   REMARKS
JACKSON        FAIR      68  64  87 S3        30.10S
LONDON         FAIR      68  66  93 CALM      30.10S
SOMERSET       NOT AVBL
MIDDLESBORO    FAIR      66  66  99 CALM      30.12F
MONTICELLO     FAIR      65  63  93 W12       30.11S
$$




USA.gov is the U.S. government's official web portal to all federal, state and local government web resources and services.